Probability
0 6 100 100 100 100 100 100 100 100 100 100 100 100 100 100 97 100 100 100 100 100 100 100 100 100 100 100 100 100 100 100 100 100 100 100 100 100 100 100 100 100 100
0 35 100 100 100 100 100 100 100 100 100 100 97 97 97 94 87 84 84 94 97 94 97 97 100 100 100 100 100 100 100 100 100 100 100 100 100 100 100 100 100 100 100
10 81 100 100 100 100 100 100 100 100 100 100 100 90 84 71 71 81 81 68 68 87 84 94 94 100 100 100 100 100 100 97 100 100 90 87 100 100 97 97 100 100 100
32 97 97 100 100 100 100 100 100 100 100 100 97 87 77 61 58 65 65 52 55 61 68 87 94 97 100 100 100 100 100 100 94 90 74 84 90 94 94 94 97 94 97
42 94 94 100 100 100 100 100 100 100 100 100 94 90 74 58 32 35 35 45 29 35 45 74 81 94 97 100 100 100 97 97 97 84 71 71 87 100 100 94 94 90 94
55 77 94 100 100 100 100 100 100 100 100 100 97 94 77 42 32 29 16 26 13 13 26 55 68 71 77 94 97 94 94 97 94 74 71 77 94 100 100 97 90 94 90
35 77 94 100 100 100 100 100 100 100 100 100 100 94 84 42 23 19 13 13 13 13 10 16 45 52 65 74 87 94 97 97 68 71 71 81 90 97 97 100 97 97 97
23 84 94 100 100 100 100 97 100 100 100 100 100 94 81 58 23 16 6 6 3 6 3 10 19 16 32 45 68 87 94 94 90 81 74 81 94 100 100 100 97 97 100
16 74 97 97 100 100 100 100 100 100 100 100 100 100 90 74 39 10 3 0 3 3 6 3 0 6 3 13 48 81 94 97 26 58 87 87 100 100 100 100 97 100 100
13 68 77 71 74 77 90 100 100 100 100 100 100 100 97 81 35 13 6 0 0 0 0 0 0 0 0 3 42 81 90 65 10 39 61 90 100 97 97 100 100 100 97
6 19 35 32 23 16 29 90 97 97 97 100 100 100 87 6 0 6 0 0 0 0 0 0 0 0 0 3 45 74 26 6 6 10 32 87 97 97 97 100 100 100 97
3 13 10 6 3 0 19 42 23 61 45 26 19 42 0 0 0 0 0 0 0 0 0 0 0 0 0 0 6 6 0 3 3 0 16 87 77 77 87 94 100 100 97
0 6 10 0 0 0 0 0 0 0 0 0 0 0 0 0 0 0 0 0 0 0 0 0 0 0 0 0 0 0 0 0 0 6 19 84 68 58 65 71 87 100 100
0 0 0 0 0 0 0 0 0 0 0 0 0 0 0 0 0 0 0 0 0 0 0 0 0 0 0 0 0 0 0 0 0 3 29 97 97 74 71 71 84 84 90
0 0 0 3 0 0 0 0 0 0 0 0 0 0 0 0 0 0 0 0 0 0 0 0 0 0 0 0 0 0 0 0 0 0 23 100 100 100 97 97 94 90 97
0 0 0 0 0 0 0 0 0 0 0 0 0 0 0 0 0 0 0 0 0 0 0 0 0 0 0 0 0 0 0 0 0 0 0 45 100 100 100 94 90 84 84
0 0 0 0 0 0 0 0 0 0 0 0 0 0 0 0 0 0 0 0 0 0 0 0 0 0 0 0 0 0 0 0 0 0 0 0 19 94 90 90 84 77 71
0 0 3 10 0 0 0 0 0 0 0 0 0 0 0 0 0 0 0 0 0 0 0 0 0 0 0 0 0 0 0 0 0 0 0 0 0 0 52 71 65 55 42
0 0 6 13 0 0 0 0 0 0 0 0 0 0 0 0 0 0 0 0 0 0 0 0 0 0 0 0 0 0 0 0 0 0 0 0 0 0 3 10 35 48 42
0 0 0 6 3 3 3 0 0 0 0 0 0 0 0 0 0 0 0 0 0 0 0 0 0 0 0 0 0 0 0 0 0 0 0 0 0 0 0 0 0 3 29
0 0 0 13 6 3 3 3 0 0 0 0 0 0 0 0 0 0 0 0 0 0 0 0 0 0 0 0 0 0 0 0 0 0 0 0 0 0 0 0 0 0 0
0 0 0 10 16 6 6 3 0 0 0 0 0 0 0 0 0 0 0 0 0 0 0 0 0 0 0 0 0 0 0 0 0 0 0 0 0 0 0 0 0 0 0
0 0 3 10 13 6 6 3 0 0 0 0 0 0 0 0 0 0 0 0 0 0 0 0 0 0 0 0 0 0 0 0 0 0 0 0 0 0 0 0 0 0 0
0 0 0 3 6 6 6 6 0 0 0 0 0 0 0 0 0 0 0 0 0 0 0 0 0 0 0 0 0 0 0 0 0 0 0 0 0 0 0 0 0 0 0
0 0 0 3 3 6 6 6 3 3 0 0 0 0 0 0 0 0 0 0 0 0 0 0 0 0 0 0 0 0 0 0 0 0 0 0 0 0 0 0 0 0 0
10 13 10 13 3 3 6 6 3 3 3 0 0 0 0 0 0 0 0 0 0 0 0 0 0 0 0 0 0 0 0 0 0 0 0 0 0 0 0 0 0 0 0
Height
5891 5891 5890 5890 5889 5888 5887 5886 5885 5884 5884 5883 5883 5883 5882 5882 5882 5883 5883 5883 5884 5884 5885 5886 5887 5888 5889 5891 5892 5893 5895 5896 5897 5899 5901 5903 5905 5907 5909 5911 5913 5915 5916
5891 5891 5891 5890 5890 5889 5888 5887 5886 5885 5885 5884 5884 5883 5883 5882 5882 5883 5883 5883 5883 5884 5884 5885 5886 5887 5888 5889 5890 5892 5893 5895 5896 5897 5899 5901 5903 5905 5907 5909 5911 5913 5915
5891 5892 5891 5891 5890 5889 5889 5888 5887 5886 5886 5885 5884 5884 5883 5883 5882 5882 5882 5883 5883 5883 5884 5884 5885 5886 5886 5887 5889 5890 5892 5894 5895 5896 5897 5899 5900 5903 5904 5906 5908 5910 5912
5891 5892 5892 5892 5891 5890 5890 5889 5888 5887 5887 5886 5885 5884 5884 5883 5883 5882 5882 5882 5882 5883 5883 5883 5884 5884 5884 5885 5886 5888 5890 5892 5893 5894 5896 5897 5899 5901 5902 5904 5906 5908 5910
5891 5891 5892 5892 5892 5891 5890 5890 5889 5888 5888 5887 5886 5885 5884 5883 5883 5882 5882 5882 5882 5882 5882 5882 5882 5882 5882 5883 5884 5886 5888 5890 5892 5893 5895 5896 5898 5899 5901 5903 5904 5906 5908
5891 5891 5892 5892 5892 5892 5891 5891 5890 5889 5889 5888 5887 5886 5885 5884 5883 5882 5881 5881 5881 5881 5881 5881 5881 5881 5881 5882 5883 5885 5887 5889 5890 5892 5894 5895 5897 5899 5900 5902 5903 5905 5906
5891 5892 5892 5893 5893 5892 5892 5891 5891 5890 5890 5889 5888 5886 5885 5884 5883 5882 5881 5881 5880 5880 5880 5880 5881 5881 5881 5881 5882 5883 5885 5888 5889 5891 5893 5895 5896 5898 5899 5901 5902 5904 5905
5891 5892 5893 5893 5893 5893 5893 5892 5892 5891 5890 5890 5888 5887 5886 5885 5883 5882 5882 5881 5880 5880 5879 5880 5880 5880 5880 5880 5881 5883 5884 5886 5888 5890 5892 5894 5895 5897 5898 5900 5901 5902 5904
5891 5892 5892 5893 5893 5893 5893 5892 5892 5891 5891 5890 5889 5888 5886 5885 5884 5883 5882 5881 5880 5879 5879 5879 5879 5879 5879 5880 5880 5882 5883 5885 5887 5889 5890 5892 5894 5895 5896 5898 5899 5901 5902
5891 5891 5892 5892 5892 5892 5892 5892 5892 5891 5891 5890 5889 5888 5887 5886 5884 5883 5882 5881 5880 5879 5878 5878 5878 5878 5878 5879 5880 5881 5882 5884 5886 5887 5889 5890 5891 5893 5894 5896 5897 5899 5901
5891 5891 5891 5891 5891 5891 5891 5891 5891 5891 5890 5890 5889 5888 5887 5886 5884 5883 5882 5881 5880 5879 5878 5878 5878 5877 5877 5878 5879 5881 5882 5883 5884 5886 5887 5888 5889 5891 5892 5894 5895 5897 5899
5890 5890 5890 5890 5890 5890 5890 5890 5890 5890 5889 5889 5888 5887 5886 5885 5884 5883 5882 5880 5879 5878 5878 5877 5877 5876 5876 5877 5878 5880 5881 5882 5883 5884 5885 5887 5888 5889 5890 5892 5894 5896 5898
5889 5889 5888 5888 5888 5888 5888 5888 5888 5888 5888 5887 5887 5886 5885 5885 5884 5883 5881 5880 5879 5878 5877 5876 5876 5875 5875 5876 5876 5878 5879 5880 5881 5882 5884 5885 5886 5887 5889 5891 5893 5895 5896
5888 5887 5886 5886 5886 5886 5886 5886 5886 5885 5885 5885 5885 5884 5884 5883 5882 5881 5880 5879 5878 5877 5876 5875 5874 5874 5874 5874 5874 5875 5876 5878 5879 5880 5882 5883 5884 5886 5887 5889 5891 5893 5894
5884 5884 5884 5883 5883 5883 5883 5883 5883 5883 5883 5882 5882 5882 5882 5881 5881 5880 5879 5878 5877 5876 5875 5874 5873 5872 5872 5872 5872 5873 5874 5875 5876 5877 5879 5880 5882 5883 5885 5887 5889 5891 5892
5881 5880 5880 5880 5880 5879 5879 5879 5879 5879 5879 5879 5879 5880 5879 5879 5878 5878 5877 5876 5875 5874 5873 5872 5871 5870 5870 5870 5870 5870 5871 5872 5873 5874 5875 5876 5878 5880 5882 5884 5886 5888 5889
5877 5877 5876 5876 5876 5876 5876 5875 5876 5875 5875 5876 5876 5876 5876 5876 5875 5875 5874 5873 5873 5872 5871 5870 5869 5868 5867 5867 5867 5868 5868 5869 5869 5870 5871 5873 5874 5876 5878 5880 5882 5884 5885
5874 5873 5873 5872 5872 5872 5872 5872 5872 5872 5872 5872 5873 5873 5873 5872 5872 5871 5871 5870 5869 5869 5868 5867 5866 5866 5865 5865 5865 5865 5865 5865 5866 5867 5867 5869 5870 5871 5873 5875 5877 5879 5881
5870 5869 5869 5868 5868 5868 5868 5868 5868 5868 5869 5869 5869 5869 5869 5868 5868 5867 5867 5866 5866 5866 5865 5864 5864 5863 5862 5862 5861 5861 5861 5862 5862 5863 5864 5865 5866 5867 5868 5870 5872 5873 5876
5865 5865 5865 5864 5864 5864 5864 5863 5863 5864 5864 5864 5864 5864 5864 5864 5863 5863 5862 5862 5862 5861 5861 5861 5860 5859 5859 5858 5858 5858 5858 5858 5859 5859 5860 5861 5861 5862 5863 5865 5866 5868 5871
5860 5860 5859 5859 5859 5859 5859 5858 5858 5858 5859 5859 5859 5859 5860 5860 5859 5859 5858 5858 5858 5857 5856 5856 5856 5855 5855 5854 5854 5854 5854 5854 5854 5855 5856 5857 5857 5858 5859 5860 5862 5864 5866
5854 5854 5854 5854 5854 5853 5853 5853 5853 5853 5853 5853 5853 5854 5854 5855 5854 5854 5854 5854 5853 5852 5851 5850 5850 5850 5850 5849 5849 5849 5849 5849 5849 5851 5852 5852 5853 5854 5854 5855 5857 5859 5861
5847 5847 5848 5848 5848 5847 5847 5847 5846 5847 5847 5847 5847 5848 5849 5849 5849 5849 5849 5849 5848 5847 5846 5845 5845 5844 5844 5843 5843 5843 5843 5843 5844 5845 5847 5848 5848 5849 5850 5851 5852 5854 5856
5840 5840 5841 5841 5841 5841 5840 5839 5839 5840 5841 5841 5842 5842 5843 5843 5844 5844 5844 5843 5842 5842 5841 5840 5839 5839 5838 5837 5837 5837 5837 5838 5838 5839 5841 5842 5843 5844 5845 5846 5847 5849 5851
5831 5832 5833 5834 5834 5834 5833 5832 5831 5832 5834 5835 5836 5837 5837 5837 5837 5837 5837 5837 5836 5835 5835 5834 5834 5833 5832 5831 5831 5830 5831 5831 5832 5833 5835 5837 5839 5840 5841 5842 5843 5844 5846
5822 5823 5824 5825 5825 5826 5826 5824 5823 5825 5827 5829 5830 5831 5831 5831 5831 5831 5830 5830 5829 5829 5828 5828 5827 5826 5826 5825 5825 5825 5825 5825 5826 5828 5829 5831 5833 5835 5836 5837 5838 5839 5841
Wind_Speed
9 12 13 14 14 14 14 14 15 15 16 15 14 13 12 11 9 7 6 5 4 3 3 4 5 6 7 8 9 11 12 13 15 16 17 19 19 19 19 18 17 16 14
6 9 11 12 13 13 13 14 14 15 15 15 14 13 12 11 9 7 6 5 5 4 3 4 5 7 9 10 11 12 12 12 12 14 16 17 18 18 19 19 18 17 15
3 6 8 10 11 11 12 13 13 14 14 14 13 13 12 11 9 8 6 5 5 5 4 5 6 7 9 11 13 13 12 11 11 12 13 14 16 16 17 18 18 18 16
1 4 6 8 9 10 11 12 12 13 13 13 13 12 12 11 10 8 7 6 5 5 5 5 6 7 9 12 14 14 14 13 12 11 11 11 12 13 14 15 16 17 17
2 2 4 6 7 8 9 10 11 12 12 12 12 12 12 12 11 10 9 7 6 5 5 6 5 6 7 9 12 15 15 14 12 11 10 10 10 10 10 11 11 11 12
2 1 2 4 5 6 8 9 10 11 11 12 12 12 11 11 11 11 10 8 7 5 5 5 5 4 4 6 9 13 14 14 13 11 10 9 9 8 7 8 8 8 9
1 1 1 3 4 5 6 7 9 10 11 11 11 11 11 11 11 11 11 9 7 6 5 5 4 4 3 4 7 11 14 15 14 13 11 9 8 8 7 7 8 8 8
1 1 1 2 3 4 5 7 8 9 10 11 11 11 11 11 11 11 11 10 8 6 5 4 4 3 2 2 5 9 12 15 15 14 13 11 10 10 9 9 10 9 9
2 2 2 2 3 4 5 6 7 8 9 10 11 11 11 11 12 12 12 11 9 7 6 4 3 3 3 3 4 6 9 12 12 13 13 13 13 12 11 10 10 10 10
3 4 4 4 4 5 5 6 7 8 8 9 9 10 11 11 11 12 12 11 10 8 6 5 3 3 4 4 4 5 7 9 10 11 11 12 13 14 14 13 12 11 11
5 5 6 7 7 7 7 8 8 9 9 8 8 8 9 10 10 11 11 11 10 8 6 4 3 4 5 6 6 6 7 8 8 9 10 11 12 13 14 13 12 11 11
6 7 8 9 10 10 10 10 10 11 11 10 9 8 8 8 9 10 10 10 10 9 7 4 3 4 6 8 8 8 8 9 9 9 9 9 9 10 10 10 10 10 9
8 9 10 11 12 13 13 13 12 13 13 12 10 9 7 7 7 8 9 9 9 8 7 6 4 4 6 8 10 11 11 11 10 10 10 9 9 9 8 9 9 9 9
12 11 12 13 14 15 16 16 15 15 15 13 11 10 9 7 7 7 8 8 8 8 7 6 6 5 6 8 10 12 13 14 14 13 13 12 12 11 10 10 10 10 10
16 15 15 15 16 17 18 18 18 17 16 15 12 11 10 9 8 7 7 8 8 8 8 7 7 7 7 8 10 12 15 16 16 16 16 15 15 15 14 14 13 13 12
19 19 18 17 18 19 19 19 19 18 17 16 14 12 11 11 11 11 10 10 10 9 9 8 8 8 9 9 10 12 14 16 17 18 18 18 19 19 18 18 18 17 17
21 21 20 19 19 19 19 19 19 18 16 15 14 12 12 12 14 13 13 13 11 11 12 11 11 10 11 11 11 12 13 15 17 18 19 20 21 21 22 22 22 21 21
22 21 20 19 18 18 19 18 17 16 15 14 13 13 14 14 14 15 15 15 14 14 14 14 14 13 13 13 13 13 14 15 16 17 19 20 21 22 23 23 23 23 22
22 21 20 19 18 18 18 17 17 16 15 15 15 15 16 16 16 16 17 16 16 16 17 17 16 16 15 15 15 15 15 16 17 18 19 20 21 22 23 24 24 24 23
24 22 21 20 19 19 19 19 18 18 17 16 17 17 18 17 17 18 18 18 18 19 19 19 19 19 18 17 16 16 17 17 18 19 19 20 21 21 23 23 24 24 24
25 23 21 22 22 21 21 21 20 19 18 18 18 18 18 18 19 18 18 19 21 22 22 23 22 21 20 20 19 18 18 19 20 20 20 21 21 21 22 23 24 24 25
27 24 23 24 24 24 23 23 22 21 21 20 20 19 19 19 19 19 20 21 23 24 24 24 24 24 23 23 22 20 20 20 20 20 20 21 21 21 21 22 23 24 25
28 26 25 25 26 27 26 26 24 24 23 22 21 20 20 20 21 20 21 23 24 24 25 25 25 26 26 26 25 22 22 21 21 21 21 22 22 21 21 21 23 24 25
29 28 28 27 29 30 30 28 27 26 24 23 22 21 22 22 22 23 23 24 25 25 26 27 26 27 28 28 28 27 24 22 22 22 23 23 22 22 21 20 21 23 25
31 31 31 30 32 34 34 31 29 27 24 23 22 22 23 23 24 24 25 26 26 27 27 28 28 28 29 30 30 29 27 23 23 24 23 23 23 22 20 19 20 22 24
34 34 34 34 36 36 36 35 31 27 24 22 21 22 23 24 25 25 25 26 26 26 27 27 27 27 28 29 30 30 28 25 24 24 23 24 24 23 21 19 19 20 22
Wind_Direction
42 42 40 38 39 41 42 42 42 42 42 40 39 38 36 34 33 33 28 17 360 328 294 272 258 249 242 235 229 226 226 230 232 233 237 238 237 239 241 244 248 251 252
38 40 39 37 37 40 41 41 40 40 40 39 38 36 35 32 29 27 21 12 1 343 312 287 272 257 247 242 238 233 232 233 238 239 240 237 236 238 241 243 243 244 243
43 42 39 36 36 39 42 41 40 40 39 37 34 33 33 31 29 24 16 4 356 344 324 302 287 266 252 246 241 236 237 235 238 241 240 236 234 237 240 240 239 240 238
100 53 41 37 36 39 42 41 40 39 38 35 32 30 31 30 28 24 17 5 352 341 328 315 300 281 260 249 241 236 235 235 236 238 238 231 224 227 233 234 236 236 234
157 81 46 39 37 39 39 40 38 36 35 34 32 29 29 29 28 25 19 10 357 343 332 325 312 295 270 249 237 232 230 232 233 231 233 225 220 219 226 224 222 222 219
155 107 51 41 38 37 36 36 35 34 33 33 32 30 28 29 29 27 22 15 3 349 336 330 324 313 283 246 229 227 228 228 229 226 224 217 212 219 223 214 210 213 217
171 172 32 37 33 30 32 33 32 31 29 29 29 28 28 28 28 28 25 21 13 1 346 334 325 320 299 247 230 228 227 230 232 231 228 221 216 221 227 229 217 216 216
225 237 301 350 9 14 21 25 25 23 22 23 24 25 26 29 28 28 28 26 21 12 357 340 328 316 306 248 228 228 229 231 234 232 230 231 234 236 241 234 219 213 215
265 257 283 307 327 341 352 359 4 9 11 13 16 19 22 26 29 30 28 27 24 16 5 347 326 306 282 252 233 228 230 233 235 235 237 242 241 241 241 230 219 215 216
300 278 277 283 295 308 323 331 337 344 352 357 2 8 15 21 25 29 27 26 25 19 8 352 321 289 266 250 238 230 229 233 238 240 243 244 243 240 238 234 229 220 215
320 300 290 285 286 291 302 312 320 325 331 338 344 353 3 14 20 24 26 26 25 20 11 354 315 273 259 251 241 230 227 233 240 244 244 239 238 235 234 233 228 221 219
324 310 299 293 290 287 291 297 303 310 314 318 322 330 344 0 11 17 22 23 22 17 8 353 314 271 256 249 243 236 230 232 239 244 244 237 232 227 226 222 217 220 225
317 309 300 294 292 289 289 291 294 299 302 305 307 309 321 339 354 4 12 15 15 13 5 350 321 284 263 251 244 239 235 233 235 240 243 240 237 229 219 216 222 228 234
311 306 301 296 293 291 289 289 290 293 295 296 296 297 303 314 328 343 355 0 2 2 358 348 327 300 276 259 249 243 239 236 234 237 240 241 238 232 229 231 237 242 247
310 306 300 297 293 291 289 287 287 287 289 290 288 288 289 295 302 314 329 335 339 345 343 339 326 309 291 272 258 249 243 239 237 237 238 241 241 240 240 241 245 249 251
306 304 301 297 293 289 287 285 284 283 282 284 283 284 286 286 289 296 303 309 314 323 325 322 315 307 298 286 270 259 250 245 241 240 240 241 244 245 246 247 249 251 252
300 299 296 294 290 287 284 282 282 280 277 278 279 281 285 286 285 288 293 297 300 306 309 307 306 304 297 288 278 270 262 253 247 244 243 244 246 247 248 249 251 252 252
292 291 289 288 286 284 281 278 277 277 275 274 278 284 286 287 286 286 286 290 291 291 296 297 296 297 297 290 280 274 269 261 254 250 248 247 247 248 248 249 250 251 250
286 285 283 281 280 279 277 275 274 274 273 274 279 285 287 287 286 285 283 282 281 281 285 288 287 289 291 289 283 275 270 266 260 256 254 251 249 248 248 249 249 249 249
279 278 276 274 272 272 272 272 272 273 275 276 279 282 284 284 285 285 280 279 277 278 279 281 281 283 285 286 284 278 272 267 262 258 255 251 249 248 248 248 247 247 247
274 274 269 267 266 266 268 269 269 271 273 275 276 279 281 281 281 278 277 277 277 278 279 280 280 280 281 281 281 278 275 268 261 258 254 251 250 250 250 248 246 245 245
271 271 265 261 261 262 264 265 265 266 268 270 274 276 276 276 274 272 272 274 275 277 278 278 278 277 279 279 277 274 273 267 261 257 254 251 251 252 252 249 246 243 242
264 264 261 259 260 261 260 260 260 261 263 266 269 272 273 273 272 270 271 273 275 277 277 276 276 276 277 277 274 270 268 263 260 258 253 250 250 251 253 251 246 242 240
258 258 256 256 257 258 258 256 255 256 258 262 265 268 269 269 269 270 273 275 276 276 276 276 275 274 273 273 271 270 263 260 260 258 254 250 250 249 251 252 247 242 238
251 251 249 249 253 253 253 253 253 252 255 257 260 266 269 269 270 272 275 277 278 277 276 275 274 272 270 270 268 268 266 259 257 255 251 250 250 249 250 251 247 242 238
247 247 246 246 248 250 249 247 249 248 251 254 260 265 267 269 272 275 279 281 281 280 279 277 274 271 270 268 266 267 266 264 258 255 251 248 248 248 248 249 246 242 239